Location: Dayton
(39.7590°N, 84.1920°W)
Time: 05:42:42
(UTC-04:00)

ATLAS CENTAUR R/B - Visible Passes

Search period start: 23 July 2014 00:00
Search period end: 02 August 2014 00:00
Orbit: 233 x 9488 km, 57.3° (Epoch: 30 May)

Date Brightness Start Highest point End Pass type
(mag) Time Alt. Az. Time Alt. Az. Time Alt. Az.
23 Jul 7.7 00:57:29 10° NW 01:43:07 37° W 02:22:45 17° SW visible
23 Jul 7.6 20:13:25 10° NW 20:56:21 74° NE 22:01:24 12° SE visible
23 Jul 7.6 23:45:24 10° NW 00:36:05 53° W 01:17:49 23° SSW visible
24 Jul 7.5 22:34:25 10° NW 23:26:25 70° WSW 00:12:49 24° S visible
25 Jul 8.0 02:17:00 10° NW 02:45:34 18° WNW 03:15:47 10° WSW visible
25 Jul 7.5 21:23:55 10° NW 22:13:48 86° WSW 23:07:43 19° SSE visible
26 Jul 7.8 00:59:07 10° NW 01:41:03 31° W 02:24:07 10° SW visible
26 Jul 7.6 20:13:34 10° NW 20:58:07 79° NE 22:02:33 11° SE visible
26 Jul 7.7 23:45:47 10° NW 00:34:16 46° W 01:18:55 17° SSW visible
27 Jul 7.6 22:34:01 10° NW 23:24:59 63° WSW 00:13:37 19° S visible
28 Jul 8.2 02:22:45 10° WNW 02:41:38 13° WNW 03:01:37 10° W visible
28 Jul 7.6 21:22:54 10° NW 22:12:50 80° WSW 23:08:14 15° SSE visible
29 Jul 7.9 00:59:32 10° NW 01:37:17 26° W 02:17:30 10° SW visible
29 Jul 7.7 20:12:03 10° NW 20:57:40 84° NE 22:01:19 10° SE visible
29 Jul 7.8 23:44:39 10° NW 00:30:41 41° W 01:19:02 10° SSW visible
30 Jul 7.6 22:32:00 10° NW 23:21:38 57° WSW 00:13:30 12° S visible
31 Jul 7.6 21:20:15 10° NW 22:09:50 75° WSW 23:07:46 10° SSE visible
01 Aug 8.1 00:58:51 10° NW 01:31:53 21° W 02:07:51 10° WSW visible
01 Aug 7.7 20:08:52 10° NW 20:55:06 89° NE 21:57:50 10° SSE visible
01 Aug 8.8 23:42:01 10° NW 00:00:00 27° WNW 00:00:00 27° WNW visible
